Year,Month,Day,Hour,Minute,Value (Times are PST for temperature in C)
2009,03,22,00,00,1.00
2009,03,22,00,01,1.00
2009,03,22,00,02,1.00
2009,03,22,00,03,0.90
2009,03,22,00,04,0.90
2009,03,22,00,05,0.90
2009,03,22,00,06,0.80
2009,03,22,00,07,0.80
2009,03,22,00,08,0.80
2009,03,22,00,09,0.80
2009,03,22,00,10,0.80
2009,03,22,00,11,0.80
2009,03,22,00,12,0.80
2009,03,22,00,13,0.80
2009,03,22,00,14,0.80
2009,03,22,00,15,0.80
2009,03,22,00,16,0.80
2009,03,22,00,17,0.70
2009,03,22,00,18,0.70
2009,03,22,00,19,0.70
2009,03,22,00,20,0.70
2009,03,22,00,21,0.70
2009,03,22,00,22,0.70
2009,03,22,00,23,0.80
2009,03,22,00,24,0.80
2009,03,22,00,25,0.80
2009,03,22,00,26,0.80
2009,03,22,00,27,0.80
2009,03,22,00,28,0.80
2009,03,22,00,29,0.80
2009,03,22,00,30,0.80
2009,03,22,00,31,0.80
2009,03,22,00,32,0.80
2009,03,22,00,33,0.80
2009,03,22,00,34,0.80
2009,03,22,00,35,0.80
2009,03,22,00,36,0.70
2009,03,22,00,37,0.70
2009,03,22,00,38,0.70
2009,03,22,00,39,0.70
2009,03,22,00,40,0.60
2009,03,22,00,41,0.60
2009,03,22,00,42,0.60
2009,03,22,00,43,0.60
2009,03,22,00,44,0.60
2009,03,22,00,45,0.60
2009,03,22,00,46,0.60
2009,03,22,00,47,0.70
2009,03,22,00,48,0.70
2009,03,22,00,49,0.80
2009,03,22,00,50,0.80
2009,03,22,00,51,0.80
2009,03,22,00,52,0.80
2009,03,22,00,53,0.80
2009,03,22,00,54,0.80
2009,03,22,00,55,0.90
2009,03,22,00,56,0.90
2009,03,22,00,57,0.90
2009,03,22,00,58,1.00
2009,03,22,00,59,1.00
2009,03,22,01,00,1.00
2009,03,22,01,01,1.00
2009,03,22,01,02,1.10
2009,03,22,01,03,1.10
2009,03,22,01,04,1.20
2009,03,22,01,05,1.20
2009,03,22,01,06,1.20
2009,03,22,01,07,1.30
2009,03,22,01,08,1.30
2009,03,22,01,09,1.30
2009,03,22,01,10,1.30
2009,03,22,01,11,1.30
2009,03,22,01,12,1.20
2009,03,22,01,13,1.20
2009,03,22,01,14,1.10
2009,03,22,01,15,1.10
2009,03,22,01,16,1.10
2009,03,22,01,17,1.00
2009,03,22,01,18,1.00
2009,03,22,01,19,1.00
2009,03,22,01,20,0.90
2009,03,22,01,21,0.90
2009,03,22,01,22,0.90
2009,03,22,01,23,0.90
2009,03,22,01,24,0.90
2009,03,22,01,25,0.90
2009,03,22,01,26,0.90
2009,03,22,01,27,0.90
2009,03,22,01,28,0.80
2009,03,22,01,29,0.80
2009,03,22,01,30,0.90
2009,03,22,01,31,0.90
2009,03,22,01,32,0.90
2009,03,22,01,33,1.00
2009,03,22,01,34,1.10
2009,03,22,01,35,1.10
2009,03,22,01,36,1.20
2009,03,22,01,37,1.30
2009,03,22,01,38,1.30
2009,03,22,01,39,1.30
2009,03,22,01,40,1.40
2009,03,22,01,41,1.40
2009,03,22,01,42,1.50
2009,03,22,01,43,1.60
2009,03,22,01,44,1.70
2009,03,22,01,45,1.80
2009,03,22,01,46,1.80
2009,03,22,01,47,1.80
2009,03,22,01,48,1.90
2009,03,22,01,49,1.90
2009,03,22,01,50,1.90
2009,03,22,01,51,2.00
2009,03,22,01,52,2.00
2009,03,22,01,53,2.10
2009,03,22,01,54,2.10
2009,03,22,01,55,2.10
2009,03,22,01,56,2.10
2009,03,22,01,57,2.10
2009,03,22,01,58,2.20
2009,03,22,01,59,2.20
2009,03,22,02,00,2.20
2009,03,22,02,01,2.20
2009,03,22,02,02,2.20
2009,03,22,02,03,2.20
2009,03,22,02,04,2.20
2009,03,22,02,05,2.20
2009,03,22,02,06,2.20
2009,03,22,02,07,2.20
2009,03,22,02,08,2.20
2009,03,22,02,09,2.20
2009,03,22,02,10,2.20
2009,03,22,02,11,2.20
2009,03,22,02,12,2.20
2009,03,22,02,13,2.20
2009,03,22,02,14,2.20
2009,03,22,02,15,2.20
2009,03,22,02,16,2.20
2009,03,22,02,17,2.20
2009,03,22,02,18,2.20
2009,03,22,02,19,2.20
2009,03,22,02,20,2.30
2009,03,22,02,21,2.30
2009,03,22,02,22,2.30
2009,03,22,02,23,2.30
2009,03,22,02,24,2.30
2009,03,22,02,25,2.30
2009,03,22,02,26,2.30
2009,03,22,02,27,2.30
2009,03,22,02,28,2.40
2009,03,22,02,29,2.40
2009,03,22,02,30,2.40
2009,03,22,02,31,2.40
2009,03,22,02,32,2.40
2009,03,22,02,33,2.50
2009,03,22,02,34,2.50
2009,03,22,02,35,2.50
2009,03,22,02,36,2.50
2009,03,22,02,37,2.50
2009,03,22,02,38,2.50
2009,03,22,02,39,2.50
2009,03,22,02,40,2.50
2009,03,22,02,41,2.50
2009,03,22,02,42,2.40
2009,03,22,02,43,2.40
2009,03,22,02,44,2.40
2009,03,22,02,45,2.40
2009,03,22,02,46,2.40
2009,03,22,02,47,2.40
2009,03,22,02,48,2.40
2009,03,22,02,49,2.40
2009,03,22,02,50,2.40
2009,03,22,02,51,2.40
2009,03,22,02,52,2.40
2009,03,22,02,53,2.40
2009,03,22,02,54,2.40
2009,03,22,02,55,2.40
2009,03,22,02,56,2.40
2009,03,22,02,57,2.40
2009,03,22,02,58,2.40
2009,03,22,02,59,2.40
2009,03,22,03,00,2.40
2009,03,22,03,01,2.40
2009,03,22,03,02,2.40
2009,03,22,03,03,2.50
2009,03,22,03,04,2.50
2009,03,22,03,05,2.50
2009,03,22,03,06,2.50
2009,03,22,03,07,2.50
2009,03,22,03,08,2.50
2009,03,22,03,09,2.50
2009,03,22,03,10,2.50
2009,03,22,03,11,2.50
2009,03,22,03,12,2.50
2009,03,22,03,13,2.50
2009,03,22,03,14,2.50
2009,03,22,03,15,2.60
2009,03,22,03,16,2.60
2009,03,22,03,17,2.60
2009,03,22,03,18,2.70
2009,03,22,03,19,2.70
2009,03,22,03,20,2.70
2009,03,22,03,21,2.80
2009,03,22,03,22,2.80
2009,03,22,03,23,2.80
2009,03,22,03,24,2.80
2009,03,22,03,25,2.80
2009,03,22,03,26,2.90
2009,03,22,03,27,2.90
2009,03,22,03,28,2.90
2009,03,22,03,29,2.90
2009,03,22,03,30,2.90
2009,03,22,03,31,2.90
2009,03,22,03,32,2.80
2009,03,22,03,33,2.80
2009,03,22,03,34,2.80
2009,03,22,03,35,2.70
2009,03,22,03,36,2.70
2009,03,22,03,37,2.70
2009,03,22,03,38,2.70
2009,03,22,03,39,2.70
2009,03,22,03,40,2.60
2009,03,22,03,41,2.60
2009,03,22,03,42,2.60
2009,03,22,03,43,2.50
2009,03,22,03,44,2.50
2009,03,22,03,45,2.50
2009,03,22,03,46,2.60
2009,03,22,03,47,2.60
2009,03,22,03,48,2.60
2009,03,22,03,49,2.70
2009,03,22,03,50,2.70
2009,03,22,03,51,2.80
2009,03,22,03,52,2.90
2009,03,22,03,53,2.90
2009,03,22,03,54,2.90
2009,03,22,03,55,3.10
2009,03,22,03,56,3.10
2009,03,22,03,57,3.10
2009,03,22,03,58,3.10
2009,03,22,03,59,3.20
2009,03,22,04,00,3.20
2009,03,22,04,01,3.20
2009,03,22,04,02,3.30
2009,03,22,04,03,3.30
2009,03,22,04,04,3.30
2009,03,22,04,05,3.30
2009,03,22,04,06,3.40
2009,03,22,04,07,3.40
2009,03,22,04,08,3.50
2009,03,22,04,09,3.50
2009,03,22,04,10,3.50
2009,03,22,04,11,3.50
2009,03,22,04,12,3.50
2009,03,22,04,13,3.50
2009,03,22,04,14,3.50
2009,03,22,04,15,3.50
2009,03,22,04,16,3.50
2009,03,22,04,17,3.50
2009,03,22,04,18,3.50
2009,03,22,04,19,3.50
2009,03,22,04,20,3.50
2009,03,22,04,21,3.50
2009,03,22,04,22,3.50
2009,03,22,04,23,3.50
2009,03,22,04,24,3.60
2009,03,22,04,25,3.50
2009,03,22,04,26,3.50
2009,03,22,04,27,3.50
2009,03,22,04,28,3.50
2009,03,22,04,29,3.50
2009,03,22,04,30,3.40
2009,03,22,04,31,3.40
2009,03,22,04,32,3.40
2009,03,22,04,33,3.30
2009,03,22,04,34,3.30
2009,03,22,04,35,3.30
2009,03,22,04,36,3.30
2009,03,22,04,37,3.30
2009,03,22,04,38,3.30
2009,03,22,04,39,3.30
2009,03,22,04,40,3.30
2009,03,22,04,41,3.30
2009,03,22,04,42,3.30
2009,03,22,04,43,3.30
2009,03,22,04,44,3.30
2009,03,22,04,45,3.30
2009,03,22,04,46,3.30
2009,03,22,04,47,3.30
2009,03,22,04,48,3.30
2009,03,22,04,49,3.40
2009,03,22,04,50,3.40
2009,03,22,04,51,3.40
2009,03,22,04,52,3.40
2009,03,22,04,53,3.40
2009,03,22,04,54,3.40
2009,03,22,04,55,3.40
2009,03,22,04,56,3.40
2009,03,22,04,57,3.30
2009,03,22,04,58,3.30
2009,03,22,04,59,3.30
2009,03,22,05,00,3.30
2009,03,22,05,01,3.30
2009,03,22,05,02,3.30
2009,03,22,05,03,3.20
2009,03,22,05,04,3.20
2009,03,22,05,05,3.20
2009,03,22,05,06,3.20
2009,03,22,05,07,3.20
2009,03,22,05,08,3.10
2009,03,22,05,09,3.10
2009,03,22,05,10,3.10
2009,03,22,05,11,3.10
2009,03,22,05,12,3.10
2009,03,22,05,13,3.10
2009,03,22,05,14,3.00
2009,03,22,05,15,2.90
2009,03,22,05,16,2.90
2009,03,22,05,17,2.90
2009,03,22,05,18,2.90
2009,03,22,05,19,2.90
2009,03,22,05,20,2.90
2009,03,22,05,21,2.90
2009,03,22,05,22,2.90
2009,03,22,05,23,2.90
2009,03,22,05,24,2.90
2009,03,22,05,25,2.90
2009,03,22,05,26,2.90
2009,03,22,05,27,2.90
2009,03,22,05,28,2.90
2009,03,22,05,29,3.10
2009,03,22,05,30,3.10
2009,03,22,05,31,3.10
2009,03,22,05,32,3.10
2009,03,22,05,33,3.10
2009,03,22,05,34,3.10
2009,03,22,05,35,3.10
2009,03,22,05,36,3.10
2009,03,22,05,37,3.10
2009,03,22,05,38,3.10
2009,03,22,05,39,3.10
2009,03,22,05,40,3.10
2009,03,22,05,41,3.10
2009,03,22,05,42,3.10
2009,03,22,05,43,3.10
2009,03,22,05,44,3.00
2009,03,22,05,45,2.90
2009,03,22,05,46,2.90
2009,03,22,05,47,2.90
2009,03,22,05,48,2.90
2009,03,22,05,49,2.90
2009,03,22,05,50,2.80
2009,03,22,05,51,2.80
2009,03,22,05,52,2.80
2009,03,22,05,53,2.80
2009,03,22,05,54,2.70
2009,03,22,05,55,2.70
2009,03,22,05,56,2.70
2009,03,22,05,57,2.70
2009,03,22,05,58,2.70
2009,03,22,05,59,2.70
2009,03,22,06,00,2.70
2009,03,22,06,01,2.70
2009,03,22,06,02,2.70
2009,03,22,06,03,2.70
2009,03,22,06,04,2.70
2009,03,22,06,05,2.60
2009,03,22,06,06,2.60
2009,03,22,06,07,2.70
2009,03,22,06,08,2.70
2009,03,22,06,09,2.70
2009,03,22,06,10,2.70
2009,03,22,06,11,2.70
2009,03,22,06,12,2.70
2009,03,22,06,13,2.70
2009,03,22,06,14,2.70
2009,03,22,06,15,2.80
2009,03,22,06,16,2.80
2009,03,22,06,17,2.80
2009,03,22,06,18,2.80
2009,03,22,06,19,2.90
2009,03,22,06,20,2.90
2009,03,22,06,21,2.90
2009,03,22,06,22,2.90
2009,03,22,06,23,2.90
2009,03,22,06,24,2.90
2009,03,22,06,25,2.90
2009,03,22,06,26,3.10
2009,03,22,06,27,3.10
2009,03,22,06,28,3.10
2009,03,22,06,29,3.10
2009,03,22,06,30,3.10
2009,03,22,06,31,3.10
2009,03,22,06,32,3.10
2009,03,22,06,33,3.10
2009,03,22,06,34,3.20
2009,03,22,06,35,3.20
2009,03,22,06,36,3.20
2009,03,22,06,37,3.20
2009,03,22,06,38,3.20
2009,03,22,06,39,3.30
2009,03,22,06,40,3.30
2009,03,22,06,41,3.30
2009,03,22,06,42,3.30
2009,03,22,06,43,3.30
2009,03,22,06,44,3.30
2009,03,22,06,45,3.30
2009,03,22,06,46,3.20
2009,03,22,06,47,3.20
2009,03,22,06,48,3.10
2009,03,22,06,49,3.10
2009,03,22,06,50,2.90
2009,03,22,06,51,2.90
2009,03,22,06,52,2.90
2009,03,22,06,53,2.80
2009,03,22,06,54,2.80
2009,03,22,06,55,2.70
2009,03,22,06,56,2.70
2009,03,22,06,57,2.70
2009,03,22,06,58,2.70
2009,03,22,06,59,2.60
2009,03,22,07,00,2.60
2009,03,22,07,01,2.60
2009,03,22,07,02,2.60
2009,03,22,07,03,2.60
2009,03,22,07,04,2.60
2009,03,22,07,05,2.60
2009,03,22,07,06,2.60
2009,03,22,07,07,2.60
2009,03,22,07,08,2.60
2009,03,22,07,09,2.60
2009,03,22,07,10,2.60
2009,03,22,07,11,2.60
2009,03,22,07,12,2.60
2009,03,22,07,13,2.70
2009,03,22,07,14,2.70
2009,03,22,07,15,2.70
2009,03,22,07,16,2.70
2009,03,22,07,17,2.80
2009,03,22,07,18,2.80
2009,03,22,07,19,2.80
2009,03,22,07,20,2.80
2009,03,22,07,21,2.90
2009,03,22,07,22,2.90
2009,03,22,07,23,2.90
2009,03,22,07,24,2.90
2009,03,22,07,25,2.90
2009,03,22,07,26,2.90
2009,03,22,07,27,2.90
2009,03,22,07,28,2.80
2009,03,22,07,29,2.80
2009,03,22,07,30,2.80
2009,03,22,07,31,2.80
2009,03,22,07,32,2.90
2009,03,22,07,33,2.90
2009,03,22,07,34,2.90
2009,03,22,07,35,2.90
2009,03,22,07,36,2.90
2009,03,22,07,37,2.90
2009,03,22,07,38,2.90
2009,03,22,07,39,2.80
2009,03,22,07,40,2.80
2009,03,22,07,41,2.80
2009,03,22,07,42,2.80
2009,03,22,07,43,2.80
2009,03,22,07,44,2.80
2009,03,22,07,45,2.80
2009,03,22,07,46,2.70
2009,03,22,07,47,2.70
2009,03,22,07,48,2.70
2009,03,22,07,49,2.60
2009,03,22,07,50,2.60
2009,03,22,07,51,2.50
2009,03,22,07,52,2.50
2009,03,22,07,53,2.50
2009,03,22,07,54,2.40
2009,03,22,07,55,2.40
2009,03,22,07,56,2.40
2009,03,22,07,57,2.40
2009,03,22,07,58,2.40
2009,03,22,07,59,2.40
2009,03,22,08,00,2.40
2009,03,22,08,01,2.50
2009,03,22,08,02,2.50
2009,03,22,08,03,2.60
2009,03,22,08,04,2.70
2009,03,22,08,05,2.70
2009,03,22,08,06,2.80
2009,03,22,08,07,2.90
2009,03,22,08,08,3.00
2009,03,22,08,09,3.10
2009,03,22,08,10,3.20
2009,03,22,08,11,3.30
2009,03,22,08,12,3.40
2009,03,22,08,13,3.50
2009,03,22,08,14,3.60
2009,03,22,08,15,3.60
2009,03,22,08,16,3.70
2009,03,22,08,17,3.80
2009,03,22,08,18,3.80
2009,03,22,08,19,3.90
2009,03,22,08,20,3.90
2009,03,22,08,21,4.00
2009,03,22,08,22,4.00
2009,03,22,08,23,4.00
2009,03,22,08,24,4.10
2009,03,22,08,25,4.10
2009,03,22,08,26,4.20
2009,03,22,08,27,4.20
2009,03,22,08,28,4.20
2009,03,22,08,29,4.20
2009,03,22,08,30,4.20
2009,03,22,08,31,4.20
2009,03,22,08,32,4.20
2009,03,22,08,33,4.20
2009,03,22,08,34,4.20
2009,03,22,08,35,4.20
2009,03,22,08,36,4.30
2009,03,22,08,37,4.30
2009,03,22,08,38,4.30
2009,03,22,08,39,4.30
2009,03,22,08,40,4.30
2009,03,22,08,41,4.30
2009,03,22,08,42,4.30
2009,03,22,08,43,4.20
2009,03,22,08,44,4.20
2009,03,22,08,45,4.20
2009,03,22,08,46,4.10
2009,03,22,08,47,4.10
2009,03,22,08,48,4.00
2009,03,22,08,49,4.00
2009,03,22,08,50,3.90
2009,03,22,08,51,3.90
2009,03,22,08,52,3.80
2009,03,22,08,53,3.80
2009,03,22,08,54,3.80
2009,03,22,08,55,3.80
2009,03,22,08,56,3.80
2009,03,22,08,57,3.80
2009,03,22,08,58,3.80
2009,03,22,08,59,3.90
2009,03,22,09,00,3.90
2009,03,22,09,01,4.00
2009,03,22,09,02,4.00
2009,03,22,09,03,4.00
2009,03,22,09,04,4.10
2009,03,22,09,05,4.20
2009,03,22,09,06,4.20
2009,03,22,09,07,4.20
2009,03,22,09,08,4.20
2009,03,22,09,09,4.20
2009,03,22,09,10,4.30
2009,03,22,09,11,4.40
2009,03,22,09,12,4.40
2009,03,22,09,13,4.50
2009,03,22,09,14,4.50
2009,03,22,09,15,4.60
2009,03,22,09,16,4.60
2009,03,22,09,17,4.60
2009,03,22,09,18,4.70
2009,03,22,09,19,4.80
2009,03,22,09,20,4.80
2009,03,22,09,21,4.90
2009,03,22,09,22,4.90
2009,03,22,09,23,5.00
2009,03,22,09,24,5.10
2009,03,22,09,25,5.10
2009,03,22,09,26,5.10
2009,03,22,09,27,5.10
2009,03,22,09,28,5.20
2009,03,22,09,29,5.30
2009,03,22,09,30,5.30
2009,03,22,09,31,5.30
2009,03,22,09,32,5.30
2009,03,22,09,33,5.40
2009,03,22,09,34,5.40
2009,03,22,09,35,5.40
2009,03,22,09,36,5.50
2009,03,22,09,37,5.50
2009,03,22,09,38,5.50
2009,03,22,09,39,5.50
2009,03,22,09,40,5.50
2009,03,22,09,41,5.50
2009,03,22,09,42,5.50
2009,03,22,09,43,5.40
2009,03,22,09,44,5.40
2009,03,22,09,45,5.30
2009,03,22,09,46,5.30
2009,03,22,09,47,5.30
2009,03,22,09,48,5.30
2009,03,22,09,49,5.30
2009,03,22,09,50,5.30
2009,03,22,09,51,5.30
2009,03,22,09,52,5.40
2009,03,22,09,53,5.50
2009,03,22,09,54,5.50
2009,03,22,09,55,5.50
2009,03,22,09,56,5.50
2009,03,22,09,57,5.50
2009,03,22,09,58,5.50
2009,03,22,09,59,5.50
2009,03,22,10,00,5.50
2009,03,22,10,01,5.60
2009,03,22,10,02,5.60
2009,03,22,10,03,5.60
2009,03,22,10,04,5.60
2009,03,22,10,05,5.60
2009,03,22,10,06,5.60
2009,03,22,10,07,5.60
2009,03,22,10,08,5.70
2009,03,22,10,09,5.70
2009,03,22,10,10,5.70
2009,03,22,10,11,5.70
2009,03,22,10,12,5.80
2009,03,22,10,13,5.80
2009,03,22,10,14,5.90
2009,03,22,10,15,5.90
2009,03,22,10,16,5.90
2009,03,22,10,17,6.00
2009,03,22,10,18,6.00
2009,03,22,10,19,6.10
2009,03,22,10,20,6.10
2009,03,22,10,21,6.20
2009,03,22,10,22,6.20
2009,03,22,10,23,6.20
2009,03,22,10,24,6.20
2009,03,22,10,25,6.30
2009,03,22,10,26,6.30
2009,03,22,10,27,6.40
2009,03,22,10,28,6.40
2009,03,22,10,29,6.40
2009,03,22,10,30,6.40
2009,03,22,10,31,6.50
2009,03,22,10,32,6.60
2009,03,22,10,33,6.60
2009,03,22,10,34,6.60
2009,03,22,10,35,6.70
2009,03,22,10,36,6.70
2009,03,22,10,37,6.70
2009,03,22,10,38,6.80
2009,03,22,10,39,6.70
2009,03,22,10,40,6.70
2009,03,22,10,41,6.80
2009,03,22,10,42,6.80
2009,03,22,10,43,6.80
2009,03,22,10,44,6.80
2009,03,22,10,45,6.80
2009,03,22,10,46,6.80
2009,03,22,10,47,6.70
2009,03,22,10,48,6.70
2009,03,22,10,49,6.70
2009,03,22,10,50,6.70
2009,03,22,10,51,6.80
2009,03,22,10,52,6.80
2009,03,22,10,53,6.80
2009,03,22,10,54,6.80
2009,03,22,10,55,6.80
2009,03,22,10,56,6.80
2009,03,22,10,57,6.80
2009,03,22,10,58,6.80
2009,03,22,10,59,6.80
2009,03,22,11,00,6.80
2009,03,22,11,01,6.80
2009,03,22,11,02,6.80
2009,03,22,11,03,6.90
2009,03,22,11,04,6.90
2009,03,22,11,05,6.90
2009,03,22,11,06,6.90
2009,03,22,11,07,7.00
2009,03,22,11,08,7.00
2009,03,22,11,09,7.00
2009,03,22,11,10,7.00
2009,03,22,11,11,7.00
2009,03,22,11,12,7.00
2009,03,22,11,13,7.00
2009,03,22,11,14,7.00
2009,03,22,11,15,7.10
2009,03,22,11,16,7.10
2009,03,22,11,17,7.10
2009,03,22,11,18,7.10
2009,03,22,11,19,7.10
2009,03,22,11,20,7.10
2009,03,22,11,21,7.10
2009,03,22,11,22,7.10
2009,03,22,11,23,7.10
2009,03,22,11,24,7.20
2009,03,22,11,25,7.20
2009,03,22,11,26,7.30
2009,03,22,11,27,7.30
2009,03,22,11,28,7.30
2009,03,22,11,29,7.30
2009,03,22,11,30,7.40
2009,03,22,11,31,7.40
2009,03,22,11,32,7.40
2009,03,22,11,33,7.40
2009,03,22,11,34,7.30
2009,03,22,11,35,7.30
2009,03,22,11,36,7.30
2009,03,22,11,37,7.30
2009,03,22,11,38,7.30
2009,03,22,11,39,7.30
2009,03,22,11,40,7.30
2009,03,22,11,41,7.30
2009,03,22,11,42,7.30
2009,03,22,11,43,7.30
2009,03,22,11,44,7.30
2009,03,22,11,45,7.30
2009,03,22,11,46,7.40
2009,03,22,11,47,7.40
2009,03,22,11,48,7.40
2009,03,22,11,49,7.50
2009,03,22,11,50,7.50
2009,03,22,11,51,7.60
2009,03,22,11,52,7.70
2009,03,22,11,53,7.70
2009,03,22,11,54,7.70
2009,03,22,11,55,7.60
2009,03,22,11,56,7.60
2009,03,22,11,57,7.60
2009,03,22,11,58,7.60
2009,03,22,11,59,7.60
2009,03,22,12,00,7.60
2009,03,22,12,01,7.60
2009,03,22,12,02,7.60
2009,03,22,12,03,7.70
2009,03,22,12,04,7.80
2009,03,22,12,05,7.90
2009,03,22,12,06,8.00
2009,03,22,12,07,8.20
2009,03,22,12,08,8.30
2009,03,22,12,09,8.40
2009,03,22,12,10,8.40
2009,03,22,12,11,8.50
2009,03,22,12,12,8.50
2009,03,22,12,13,8.50
2009,03,22,12,14,8.40
2009,03,22,12,15,8.30
2009,03,22,12,16,8.20
2009,03,22,12,17,8.20
2009,03,22,12,18,8.20
2009,03,22,12,19,8.20
2009,03,22,12,20,8.20
2009,03,22,12,21,8.20
2009,03,22,12,22,8.10
2009,03,22,12,23,8.10
2009,03,22,12,24,8.10
2009,03,22,12,25,8.10
2009,03,22,12,26,8.00
2009,03,22,12,27,8.00
2009,03,22,12,28,8.00
2009,03,22,12,29,8.00
2009,03,22,12,30,8.00
2009,03,22,12,31,8.00
2009,03,22,12,32,7.90
2009,03,22,12,33,7.90
2009,03,22,12,34,7.90
2009,03,22,12,35,8.00
2009,03,22,12,36,8.00
2009,03,22,12,37,8.00
2009,03,22,12,38,8.10
2009,03,22,12,39,8.00
2009,03,22,12,40,7.90
2009,03,22,12,41,7.80
2009,03,22,12,42,7.80
2009,03,22,12,43,7.80
2009,03,22,12,44,7.80
2009,03,22,12,45,7.80
2009,03,22,12,46,7.80
2009,03,22,12,47,7.80
2009,03,22,12,48,7.80
2009,03,22,12,49,7.80
2009,03,22,12,50,7.80
2009,03,22,12,51,7.80
2009,03,22,12,52,7.80
2009,03,22,12,53,7.70
2009,03,22,12,54,7.70
2009,03,22,12,55,7.70
2009,03,22,12,56,7.70
2009,03,22,12,57,7.80
2009,03,22,12,58,7.80
2009,03,22,12,59,7.80
2009,03,22,13,00,7.90
2009,03,22,13,01,7.90
2009,03,22,13,02,7.80
2009,03,22,13,03,7.80
2009,03,22,13,04,7.80
2009,03,22,13,05,7.70
2009,03,22,13,06,7.70
2009,03,22,13,07,7.70
2009,03,22,13,08,7.60
2009,03,22,13,09,7.60
2009,03,22,13,10,7.60
2009,03,22,13,11,7.60
2009,03,22,13,12,7.50
2009,03,22,13,13,7.60
2009,03,22,13,14,7.60
2009,03,22,13,15,7.60
2009,03,22,13,16,7.70
2009,03,22,13,17,7.80
2009,03,22,13,18,7.70
2009,03,22,13,19,7.70
2009,03,22,13,20,7.70
2009,03,22,13,21,7.90
2009,03,22,13,22,7.90
2009,03,22,13,23,7.90
2009,03,22,13,24,8.00
2009,03,22,13,25,8.00
2009,03,22,13,26,8.00
2009,03,22,13,27,8.00
2009,03,22,13,28,7.90
2009,03,22,13,29,8.00
2009,03,22,13,30,8.00
2009,03,22,13,31,8.10
2009,03,22,13,32,8.00
2009,03,22,13,33,8.00
2009,03,22,13,34,7.90
2009,03,22,13,35,7.90
2009,03,22,13,36,7.90
2009,03,22,13,37,8.00
2009,03,22,13,38,8.10
2009,03,22,13,39,8.30
2009,03,22,13,40,8.40
2009,03,22,13,41,8.50
2009,03,22,13,42,8.50
2009,03,22,13,43,8.50
2009,03,22,13,44,8.50
2009,03,22,13,45,8.50
2009,03,22,13,46,8.50
2009,03,22,13,47,8.40
2009,03,22,13,48,8.50
2009,03,22,13,49,8.60
2009,03,22,13,50,8.50
2009,03,22,13,51,8.50
2009,03,22,13,52,8.60
2009,03,22,13,53,8.50
2009,03,22,13,54,8.50
2009,03,22,13,55,8.60
2009,03,22,13,56,8.60
2009,03,22,13,57,8.60
2009,03,22,13,58,8.50
2009,03,22,13,59,8.60
2009,03,22,14,00,8.50
2009,03,22,14,01,8.40
2009,03,22,14,02,8.30
2009,03,22,14,03,8.20
2009,03,22,14,04,8.10
2009,03,22,14,05,8.10
2009,03,22,14,06,8.20
2009,03,22,14,07,8.20
2009,03,22,14,08,8.20
2009,03,22,14,09,8.20
2009,03,22,14,10,8.20
2009,03,22,14,11,8.20
2009,03,22,14,12,8.20
2009,03,22,14,13,8.20
2009,03,22,14,14,8.20
2009,03,22,14,15,8.20
2009,03,22,14,16,8.20
2009,03,22,14,17,8.10
2009,03,22,14,18,8.10
2009,03,22,14,19,8.20
2009,03,22,14,20,8.20
2009,03,22,14,21,8.20
2009,03,22,14,22,8.20
2009,03,22,14,23,8.20
2009,03,22,14,24,8.20
2009,03,22,14,25,8.40
2009,03,22,14,26,8.50
2009,03,22,14,27,8.50
2009,03,22,14,28,8.60
2009,03,22,14,29,8.70
2009,03,22,14,30,8.80
2009,03,22,14,31,8.80
2009,03,22,14,32,8.80
2009,03,22,14,33,8.70
2009,03,22,14,34,8.70
2009,03,22,14,35,8.70
2009,03,22,14,36,8.70
2009,03,22,14,37,8.80
2009,03,22,14,38,8.70
2009,03,22,14,39,8.70
2009,03,22,14,40,8.60
2009,03,22,14,41,8.60
2009,03,22,14,42,8.50
2009,03,22,14,43,8.60
2009,03,22,14,44,8.60
2009,03,22,14,45,8.60
2009,03,22,14,46,8.60
2009,03,22,14,47,8.60
2009,03,22,14,48,8.50
2009,03,22,14,49,8.40
2009,03,22,14,50,8.40
2009,03,22,14,51,8.40
2009,03,22,14,52,8.40
2009,03,22,14,53,8.50
2009,03,22,14,54,8.50
2009,03,22,14,55,8.50
2009,03,22,14,56,8.50
2009,03,22,14,57,8.50
2009,03,22,14,58,8.50
2009,03,22,14,59,8.60
2009,03,22,15,00,8.70
2009,03,22,15,01,8.70
2009,03,22,15,02,8.90
2009,03,22,15,03,9.00
2009,03,22,15,04,9.10
2009,03,22,15,05,9.10
2009,03,22,15,06,9.20
2009,03,22,15,07,9.20
2009,03,22,15,08,9.30
2009,03,22,15,09,9.40
2009,03,22,15,10,9.40
2009,03,22,15,11,9.40
2009,03,22,15,12,9.50
2009,03,22,15,13,9.60
2009,03,22,15,14,9.60
2009,03,22,15,15,9.50
2009,03,22,15,16,9.40
2009,03,22,15,17,9.40
2009,03,22,15,18,9.30
2009,03,22,15,19,9.30
2009,03,22,15,20,9.30
2009,03,22,15,21,9.30
2009,03,22,15,22,9.20
2009,03,22,15,23,9.20
2009,03,22,15,24,9.20
2009,03,22,15,25,9.20
2009,03,22,15,26,9.20
2009,03,22,15,27,9.20
2009,03,22,15,28,9.20
2009,03,22,15,29,9.20
2009,03,22,15,30,9.20
2009,03,22,15,31,9.20
2009,03,22,15,32,9.10
2009,03,22,15,33,9.00
2009,03,22,15,34,9.00
2009,03,22,15,35,9.00
2009,03,22,15,36,9.00
2009,03,22,15,37,9.00
2009,03,22,15,38,9.00
2009,03,22,15,39,8.90
2009,03,22,15,40,8.90
2009,03,22,15,41,9.00
2009,03,22,15,42,8.90
2009,03,22,15,43,8.80
2009,03,22,15,44,8.80
2009,03,22,15,45,8.80
2009,03,22,15,46,8.90
2009,03,22,15,47,9.00
2009,03,22,15,48,9.10
2009,03,22,15,49,9.20
2009,03,22,15,50,9.30
2009,03,22,15,51,9.30
2009,03,22,15,52,9.30
2009,03,22,15,53,9.30
2009,03,22,15,54,9.40
2009,03,22,15,55,9.40
2009,03,22,15,56,9.40
2009,03,22,15,57,9.50
2009,03,22,15,58,9.70
2009,03,22,15,59,9.80
2009,03,22,16,00,9.80
2009,03,22,16,01,9.90
2009,03,22,16,02,9.80
2009,03,22,16,03,9.80
2009,03,22,16,04,9.80
2009,03,22,16,05,9.70
2009,03,22,16,06,9.80
2009,03,22,16,07,9.90
2009,03,22,16,08,9.90
2009,03,22,16,09,10.00
2009,03,22,16,10,10.10
2009,03,22,16,11,10.00
2009,03,22,16,12,9.90
2009,03,22,16,13,9.80
2009,03,22,16,14,9.70
2009,03,22,16,15,9.50
2009,03,22,16,16,9.40
2009,03,22,16,17,9.50
2009,03,22,16,18,9.50
2009,03,22,16,19,9.50
2009,03,22,16,20,9.40
2009,03,22,16,21,9.40
2009,03,22,16,22,9.30
2009,03,22,16,23,9.20
2009,03,22,16,24,9.20
2009,03,22,16,25,9.10
2009,03,22,16,26,9.00
2009,03,22,16,27,9.00
2009,03,22,16,28,8.90
2009,03,22,16,29,8.90
2009,03,22,16,30,8.80
2009,03,22,16,31,8.80
2009,03,22,16,32,8.80
2009,03,22,16,33,8.90
2009,03,22,16,34,8.90
2009,03,22,16,35,8.90
2009,03,22,16,36,8.80
2009,03,22,16,37,8.80
2009,03,22,16,38,8.70
2009,03,22,16,39,8.60
2009,03,22,16,40,8.40
2009,03,22,16,41,8.40
2009,03,22,16,42,8.50
2009,03,22,16,43,8.50
2009,03,22,16,44,8.60
2009,03,22,16,45,8.60
2009,03,22,16,46,8.70
2009,03,22,16,47,8.70
2009,03,22,16,48,8.70
2009,03,22,16,49,8.70
2009,03,22,16,50,8.70
2009,03,22,16,51,8.80
2009,03,22,16,52,8.80
2009,03,22,16,53,8.80
2009,03,22,16,54,8.80
2009,03,22,16,55,8.80
2009,03,22,16,56,8.80
2009,03,22,16,57,8.80
2009,03,22,16,58,8.80
2009,03,22,16,59,8.70
2009,03,22,17,00,8.70
2009,03,22,17,01,8.60
2009,03,22,17,02,8.50
2009,03,22,17,03,8.40
2009,03,22,17,04,8.40
2009,03,22,17,05,8.40
2009,03,22,17,06,8.40
2009,03,22,17,07,8.40
2009,03,22,17,08,8.40
2009,03,22,17,09,8.30
2009,03,22,17,10,8.20
2009,03,22,17,11,8.20
2009,03,22,17,12,8.20
2009,03,22,17,13,8.10
2009,03,22,17,14,8.00
2009,03,22,17,15,8.00
2009,03,22,17,16,8.00
2009,03,22,17,17,7.80
2009,03,22,17,18,7.80
2009,03,22,17,19,7.80
2009,03,22,17,20,7.80
2009,03,22,17,21,7.90
2009,03,22,17,22,7.80
2009,03,22,17,23,7.80
2009,03,22,17,24,7.80
2009,03,22,17,25,7.80
2009,03,22,17,26,7.90
2009,03,22,17,27,7.90
2009,03,22,17,28,7.80
2009,03,22,17,29,7.80
2009,03,22,17,30,7.80
2009,03,22,17,31,7.80
2009,03,22,17,32,7.80
2009,03,22,17,33,7.80
2009,03,22,17,34,7.70
2009,03,22,17,35,7.60
2009,03,22,17,36,7.50
2009,03,22,17,37,7.50
2009,03,22,17,38,7.50
2009,03,22,17,39,7.40
2009,03,22,17,40,7.30
2009,03,22,17,41,7.30
2009,03,22,17,42,7.20
2009,03,22,17,43,7.00
2009,03,22,17,44,7.00
2009,03,22,17,45,7.10
2009,03,22,17,46,7.20
2009,03,22,17,47,7.20
2009,03,22,17,48,7.20
2009,03,22,17,49,7.10
2009,03,22,17,50,7.10
2009,03,22,17,51,7.10
2009,03,22,17,52,7.20
2009,03,22,17,53,7.20
2009,03,22,17,54,7.30
2009,03,22,17,55,7.30
2009,03,22,17,56,7.40
2009,03,22,17,57,7.30
2009,03,22,17,58,7.30
2009,03,22,17,59,7.20
2009,03,22,18,00,7.20
2009,03,22,18,01,7.10
2009,03,22,18,02,7.10
2009,03,22,18,03,7.10
2009,03,22,18,04,7.00
2009,03,22,18,05,7.00
2009,03,22,18,06,6.90